AI7R Weather Reports


Display with metric or nautical units.
time (UTC)temp
F
wind
direction
speed
MPH
gust
MPH
rain 1hr
in
rain 24hr
in
rain mn
in
humidity
%
barometer
mb
20260505010008 58 360 2.0 9.0 0.00 0.00 0.00 38 1007.5
20260505004506 59 360 3.0 14.0 0.00 0.00 0.00 37 1007.7
20260505003007 59 360 3.0 11.0 0.00 0.00 0.00 37 1007.6
20260505001506 59 216 3.0 11.0 0.00 0.00 0.00 36 1007.7
20260505000008 59 360 3.0 10.0 0.00 0.00 0.00 35 1008.0
20260504234506 59 360 4.0 11.0 0.00 0.00 0.00 33 1007.9
20260504233008 59 360 3.0 11.0 0.00 0.00 0.00 32 1008.2
20260504231506 59 178 4.0 12.0 0.00 0.00 0.00 32 1008.3
20260504230008 60 360 3.0 11.0 0.00 0.00 0.00 34 1008.3
20260504224506 60 360 4.0 13.0 0.00 0.00 0.00 34 1008.2
20260504223008 61 209 4.0 12.0 0.00 0.00 0.00 35 1008.2
20260504221507 61 360 3.0 12.0 0.00 0.00 0.00 38 1008.5
20260504220008 62 234 4.0 16.0 0.00 0.00 0.00 35 1008.9
20260504211506 62 360 5.0 13.0 0.00 0.00 0.00 36 1008.7
20260504203007 63 360 3.0 11.0 0.00 0.00 0.00 38 1008.7
20260504194505 61 237 3.0 10.0 0.00 0.00 0.00 43 1008.8
20260504191505 61 360 3.0 10.0 0.00 0.00 0.00 44 1008.9
20260504184505 59 360 3.0 9.0 0.00 0.00 0.00 48 1009.3
20260504181505 58 360 3.0 11.0 0.00 0.00 0.00 52 1009.2
20260504180007 57 360 3.0 9.0 0.00 0.00 0.00 51 1009.5
20260504173006 57 360 3.0 9.0 0.00 0.00 0.00 54 1009.1
20260504171505 56 360 2.0 7.0 0.00 0.00 0.00 55 1009.7
20260504081505 54 360 1.0 6.0 0.00 0.00 0.00 42 1008.6
20260504050005 61 259 2.0 8.0 0.00 0.00 0.00 32 1009.4
20260504044504 61 360 2.0 11.0 0.00 0.00 0.00 32 1009.1
20260504043005 61 360 2.0 11.0 0.00 0.00 0.00 31 1009.1
20260504041504 62 360 2.0 8.0 0.00 0.00 0.00 30 1008.7
20260504040005 62 360 2.0 10.0 0.00 0.00 0.00 30 1008.3
20260504034503 63 360 2.0 9.0 0.00 0.00 0.00 29 1008.1
20260504033005 63 204 2.0 13.0 0.00 0.00 0.00 29 1007.8
20260504031504 63 360 1.0 7.0 0.00 0.00 0.00 30 1007.8
20260504030007 64 360 1.0 4.0 0.00 0.00 0.00 30 1007.4
20260504023005 65 360 1.0 6.0 0.00 0.00 0.00 28 1007.1
20260504021504 65 360 2.0 10.0 0.00 0.00 0.00 28 1007.1
20260504013004 68 360 4.0 13.0 0.00 0.00 0.00 26 1007.3
20260504011504 68 360 4.0 15.0 0.00 0.00 0.00 25 1007.4